Location: ?????????
(38.0736°N, 23.2119°E)
Time: 13:57:51
(UTC+00:00)

Meteor PRIRODA - Pass Details

Date: 18 April 2024
Orbit: 442 x 457 km, 97.5° (Epoch: 19 May)

Event Time Altitude Azimuth Distance (km) Brightness Sun altitude
Rises 17:28:49 0° 174° (S) 2,459 6.9 -5.1°
Reaches altitude 10° 17:30:51 10° 178° (S) 1,594 6.0 -5.4°
Maximum altitude 17:34:14 60° 259° (W) 532 4.1 -6.1°
Drops below altitude 10° 17:37:37 10° 340° (NNW) 1,597 6.8 -6.7°
Sets 17:39:45 0° 345° (NNW) 2,502 7.7 -7.1°
